Printer-friendly version
Follow the MPC on Twitter Follow the MPC on Facebook Follow the MPC on Google+ The MPC blog See all the MPC RSS feeds

MPEC 2011-Y07 : P/2006 T1 = 2011 Y1 (Levy)

The following Minor Planet Electronic Circular may be linked-to from your own Web pages, but must not otherwise be redistributed electronically.

A form allowing access to any MPEC is at the bottom of this page.


Read MPEC 2011-Y06 Read MPEC 2011-Y08


M.P.E.C. 2011-Y07                                Issued 2011 Dec. 18, 04:46 UT

     The Minor Planet Electronic Circulars contain information on unusual
         minor planets and routine data on comets.  They are published
   on behalf of Commission 20 of the International Astronomical Union by the
          Minor Planet Center, Smithsonian Astrophysical Observatory,
                          Cambridge, MA 02138, U.S.A.

             Prepared using the Tamkin Foundation Computer Network

                              MPC@CFA.HARVARD.EDU
            URL http://www.minorplanetcenter.net/    ISSN 1523-6714

                          P/2006 T1 = 2011 Y1 (Levy)

Observations:
    PK11Y010  C2011 12 17.06325 23 05 56.18 +26 59 18.2          19.8 TrEY007G96
    PK11Y010  C2011 12 17.06519 23 05 56.61 +26 59 16.0          20.1 TrEY007G96
    PK11Y010  C2011 12 17.06719 23 05 56.90 +26 59 12.9          19.6 TrEY007G96
    PK11Y010 KC2011 12 17.72689 23 07 51.72 +26 44 34.5          19.1 TuEY007595
    PK11Y010 KC2011 12 17.74935 23 07 55.80 +26 44 02.2                uEY007J95
    PK11Y010 KC2011 12 17.75524 23 07 56.49 +26 43 55.5          19.6 TuEY007595
    PK11Y010 KC2011 12 17.78187 23 08 01.27 +26 43 18.0                uEY007J95
    PK11Y010 KC2011 12 17.89481 23 08 20.80 +26 40 44.3          19.9 TuEY007J95
    PK11Y010 KC2011 12 17.90097 23 08 22.15 +26 40 36.3          18.1 TwEY007J77
    PK11Y010 KC2011 12 17.90425 23 08 22.39 +26 40 31.6          19.3 TuEY007J95
    PK11Y010 KC2011 12 17.93102 23 08 27.02 +26 39 53.3                wEY007J77

Observer details:
595 Farra d'Isonzo.  Observer E. Pettarin.  0.40-m f/4.5 reflector + CCD.
G96 Mt. Lemmon Survey.  Observer R. A. Kowalski.  Measurers J. D. Ahern,
    E. C. Beshore, A. Boattini, A. R. Gibbs, A. D. Grauer, R. E. Hill,
    R. A. Kowalski, S. M. Larson, R. H. McNaught.  1.5-m reflector + CCD.
J77 Golden Hill Observatory, Stourton Caundle.  Observer R. Miles.  0.10-m
    f/2.8 refractor + CCD.
J95 Great Shefford.  Observer P. Birtwhistle.  0.40-m f/6.0 Schmidt-Cassegrain
    + CCD.

Orbital elements:
    P/2006 T1 = 2011 Y1 (Levy)
Epoch 2012 Feb. 3.0 TT = JDT 2455960.5
T 2012 Jan. 14.93632 TT                                 MPC
q   1.0074539            (2000.0)            P               Q
n   0.18623619     Peri.  179.62724     -0.16317036     -0.93700191
a   3.0368732      Node   279.74496     +0.90437293     -0.01692736
e   0.6682595      Incl.   18.26398     +0.39431592     -0.34891386
P   5.29
From 262 observations 2006 Oct. 2-2011 Dec. 17, mean residual 0".6.

    P/2006 T1 = 2011 Y1 (Levy)
Epoch 2006 Sept. 22.0 TT = JDT 2454000.5
T 2006 Oct. 7.43146 TT                                  MPC
q   0.9895425            (2000.0)            P               Q
n   0.18774615     Peri.  179.45434     -0.16146858     -0.93700373
a   3.0205685      Node   279.81019     +0.90424771     -0.01474480
e   0.6723986      Incl.   18.32204     +0.39530238     -0.34900803
P   5.25
From 262 observations 2006 Oct. 2-2011 Dec. 17, mean residual 0".63.

